SYL6392 ULLI-ULPB

Flight info

Callsign SYL6392
Flight time N/A
Altitude 29000
Route RELNI1B RELNI T693 DISUP T821 BOBMU BOBMU2H
Aircraft B738/M-SDE2E3FGHIRWXY/LB1

Departure

Time 2026-05-06 16:38
Airport Pulkovo Airport (ULLI)

Arrival

Time N/A
Airport Petrozavodsk Airport (ULPB)
Time Latitude Longitude Altitude Speed Heading
2026-05-06 16:12 59.80081 30.26452 77 ft 0 kts 286°
2026-05-06 16:26 59.80081 30.26451 69 ft 0 kts 286°
2026-05-06 16:26 59.80083 30.26432 73 ft 3 kts 286°
2026-05-06 16:27 59.80091 30.26379 70 ft 5 kts 285°
2026-05-06 16:27 59.80096 30.26350 74 ft 1 kts 298°
2026-05-06 16:27 59.80108 30.26335 71 ft 3 kts 339°
2026-05-06 16:27 59.80133 30.26338 74 ft 5 kts 13°
2026-05-06 16:28 59.80176 30.26359 67 ft 8 kts 14°
2026-05-06 16:28 59.80212 30.26378 74 ft 1 kts 15°
2026-05-06 16:28 59.80227 30.26387 75 ft 4 kts 18°
2026-05-06 16:28 59.80242 30.26431 68 ft 5 kts 77°
2026-05-06 16:29 59.80238 30.26504 75 ft 6 kts 101°
2026-05-06 16:29 59.80225 30.26595 70 ft 8 kts 118°
2026-05-06 16:29 59.80181 30.26659 76 ft 8 kts 159°
2026-05-06 16:29 59.80123 30.26650 71 ft 9 kts 195°
2026-05-06 16:30 59.80058 30.26611 75 ft 10 kts 197°
2026-05-06 16:30 59.80010 30.26583 78 ft 11 kts 197°
2026-05-06 16:30 59.79906 30.26524 84 ft 12 kts 195°
2026-05-06 16:30 59.79833 30.26452 84 ft 11 kts 222°
2026-05-06 16:31 59.79764 30.26382 81 ft 12 kts 197°
2026-05-06 16:31 59.79681 30.26331 83 ft 13 kts 197°
2026-05-06 16:31 59.79590 30.26274 84 ft 14 kts 197°
2026-05-06 16:31 59.79514 30.26273 84 ft 6 kts 141°
2026-05-06 16:32 59.79498 30.26350 83 ft 7 kts 107°
2026-05-06 16:32 59.79482 30.26456 86 ft 9 kts 107°
2026-05-06 16:32 59.79463 30.26591 84 ft 11 kts 104°
2026-05-06 16:32 59.79440 30.26750 85 ft 13 kts 107°
2026-05-06 16:33 59.79412 30.26937 84 ft 15 kts 107°
2026-05-06 16:33 59.79380 30.27147 87 ft 17 kts 107°
2026-05-06 16:33 59.79346 30.27381 84 ft 19 kts 106°
2026-05-06 16:34 59.79268 30.27916 82 ft 21 kts 107°
2026-05-06 16:34 59.79217 30.28185 84 ft 20 kts 130°
2026-05-06 16:34 59.79186 30.28225 83 ft 0 kts 161°
2026-05-06 16:34 59.79185 30.28225 83 ft 0 kts 161°
2026-05-06 16:35 59.79170 30.28234 84 ft 4 kts 163°
2026-05-06 16:35 59.79127 30.28255 85 ft 9 kts 168°
2026-05-06 16:35 59.79061 30.28239 83 ft 11 kts 220°
2026-05-06 16:36 59.79057 30.28102 84 ft 10 kts 285°
2026-05-06 16:36 59.79060 30.28077 82 ft 1 kts 286°
2026-05-06 16:37 59.79064 30.28049 82 ft 0 kts 286°
2026-05-06 16:37 59.79115 30.27713 85 ft 62 kts 287°
2026-05-06 16:37 59.79309 30.26433 81 ft 129 kts 287°
2026-05-06 16:38 59.79633 30.24489 378 ft 159 kts 290°
2026-05-06 16:38 59.80002 30.22310 1167 ft 173 kts 289°
2026-05-06 16:38 59.80277 30.20810 1741 ft 175 kts 290°
2026-05-06 16:38 59.80798 30.17698 2849 ft 182 kts 284°